Orbital Elements at Epoch 2459200.5 (2020-Dec-17.0) TDB
Reference: JPL 15 (heliocentric ecliptic J2000)
Element | Value | Uncertainty (1-sigma) | Units |
e | .06857591045478699 | 5.1928e-08 | |
a | 2.804863593004992 | 1.8683e-08 | au |
q | 2.61251751841319 | 1.4321e-07 | au |
i | 10.51268294094123 | 6.1186e-06 | deg |
node | 352.107772120376 | 2.4887e-05 | deg |
peri | 75.31612194920538 | 5.2161e-05 | deg |
M | 188.8668160359961 | 4.5467e-05 | deg |
tp | 2460016.138607833680 (2023-Mar-12.63860783) | 0.00021925 | TDB |
period | 1715.797556141343 4.70 | 1.7143e-05 4.693e-08 | d yr |
n | .2098149625586389 | 2.0964e-09 | deg/d |
Q | 2.997209667596794 | 1.9964e-08 | au |
|
| | Orbit Determination Parameters
Additional Information
|